Time,TemperatureF,DewpointF,PressureIn,WindDirection,WindDirectionDegrees,WindSpeedMPH,WindSpeedGustMPH,Humidity,HourlyPrecipIn,Conditions,Clouds,dailyrainin,SoftwareType,DateUTC
2013-01-20 00:01:00,42.7,25.3,29.90,SE,138,3.0,4.0,50,0.00,,,0.00,Wunderground v.1.15,2013-01-20 05:01:00,
2013-01-20 00:05:00,42.9,25.0,29.89,SE,131,3.0,4.0,49,0.00,,,0.00,Wunderground v.1.15,2013-01-20 05:05:00,
2013-01-20 00:06:00,42.9,25.0,29.89,South,178,3.0,4.0,49,0.00,,,0.00,Wunderground v.1.15,2013-01-20 05:06:00,
2013-01-20 00:09:00,43.0,25.1,29.89,SSE,161,4.0,5.0,49,0.00,,,0.00,Wunderground v.1.15,2013-01-20 05:09:00,
2013-01-20 00:14:00,42.9,25.0,29.89,ENE,68,2.0,7.0,49,0.00,,,0.00,Wunderground v.1.15,2013-01-20 05:14:00,
2013-01-20 00:19:00,42.9,25.0,29.89,SW,227,2.0,7.0,49,0.00,,,0.00,Wunderground v.1.15,2013-01-20 05:19:00,
2013-01-20 00:24:00,42.9,25.0,29.89,South,176,3.0,5.0,49,0.00,,,0.00,Wunderground v.1.15,2013-01-20 05:24:00,
2013-01-20 00:31:00,43.0,25.1,29.88,SE,137,3.0,3.0,49,0.00,,,0.00,Wunderground v.1.15,2013-01-20 05:31:00,
2013-01-20 00:36:00,43.0,24.6,29.88,South,189,4.0,4.0,48,0.00,,,0.00,Wunderground v.1.15,2013-01-20 05:36:00,
2013-01-20 00:41:00,43.1,24.7,29.88,SSE,152,4.0,4.0,48,0.00,,,0.00,Wunderground v.1.15,2013-01-20 05:41:00,
2013-01-20 00:47:00,43.2,24.3,29.88,SSW,198,4.0,5.0,47,0.00,,,0.00,Wunderground v.1.15,2013-01-20 05:47:00,
2013-01-20 00:52:00,43.0,24.6,29.88,West,259,3.0,3.0,48,0.00,,,0.00,Wunderground v.1.15,2013-01-20 05:52:00,
2013-01-20 00:58:00,42.9,24.5,29.88,East,94,2.0,4.0,48,0.00,,,0.00,Wunderground v.1.15,2013-01-20 05:58:00,
2013-01-20 01:04:00,42.9,24.5,29.88,SE,146,3.0,4.0,48,0.00,,,0.00,Wunderground v.1.15,2013-01-20 06:04:00,
2013-01-20 01:10:00,43.2,24.3,29.88,SSE,159,3.0,6.0,47,0.00,,,0.00,Wunderground v.1.15,2013-01-20 06:10:00,
2013-01-20 01:16:00,43.4,24.0,29.87,SSE,163,4.0,5.0,46,0.00,,,0.00,Wunderground v.1.15,2013-01-20 06:16:00,
2013-01-20 01:21:00,43.5,24.1,29.87,SSE,149,4.0,7.0,46,0.00,,,0.00,Wunderground v.1.15,2013-01-20 06:21:00,
2013-01-20 01:26:00,43.6,24.2,29.87,SSE,161,4.0,8.0,46,0.00,,,0.00,Wunderground v.1.15,2013-01-20 06:26:00,
2013-01-20 01:31:00,43.4,24.0,29.87,SE,138,4.0,4.0,46,0.00,,,0.00,Wunderground v.1.15,2013-01-20 06:31:00,
2013-01-20 01:37:00,43.4,24.0,29.87,SSE,150,4.0,5.0,46,0.00,,,0.00,Wunderground v.1.15,2013-01-20 06:37:00,
2013-01-20 01:42:00,43.3,23.9,29.87,SSE,154,3.0,4.0,46,0.00,,,0.00,Wunderground v.1.15,2013-01-20 06:42:00,
2013-01-20 01:49:00,43.3,23.9,29.87,SE,140,4.0,6.0,46,0.00,,,0.00,Wunderground v.1.15,2013-01-20 06:49:00,
2013-01-20 01:54:00,43.3,24.4,29.87,SE,141,4.0,9.0,47,0.00,,,0.00,Wunderground v.1.15,2013-01-20 06:54:00,
2013-01-20 02:00:00,43.1,24.2,29.87,South,173,4.0,4.0,47,0.00,,,0.00,Wunderground v.1.15,2013-01-20 07:00:00,
2013-01-20 02:06:00,43.0,24.6,29.87,SE,145,4.0,11.0,48,0.00,,,0.00,Wunderground v.1.15,2013-01-20 07:06:00,
2013-01-20 02:12:00,42.9,24.5,29.87,SE,138,3.0,3.0,48,0.00,,,0.00,Wunderground v.1.15,2013-01-20 07:12:00,
2013-01-20 02:19:00,42.5,24.7,29.87,SW,214,3.0,3.0,49,0.00,,,0.00,Wunderground v.1.15,2013-01-20 07:19:00,
2013-01-20 02:25:00,42.2,24.9,29.87,SE,132,1.0,6.0,50,0.00,,,0.00,Wunderground v.1.15,2013-01-20 07:25:00,
2013-01-20 02:31:00,42.1,24.8,29.87,SE,142,2.0,2.0,50,0.00,,,0.00,Wunderground v.1.15,2013-01-20 07:31:00,
2013-01-20 02:36:00,42.2,24.9,29.87,SSE,154,3.0,6.0,50,0.00,,,0.00,Wunderground v.1.15,2013-01-20 07:36:00,
2013-01-20 02:41:00,42.2,24.9,29.87,SSE,158,3.0,3.0,50,0.00,,,0.00,Wunderground v.1.15,2013-01-20 07:41:00,
2013-01-20 02:46:00,42.1,24.8,29.86,SSE,163,2.0,3.0,50,0.00,,,0.00,Wunderground v.1.15,2013-01-20 07:46:00,
2013-01-20 02:51:00,42.4,25.1,29.86,SE,140,2.0,3.0,50,0.00,,,0.00,Wunderground v.1.15,2013-01-20 07:51:00,
2013-01-20 02:57:00,42.3,25.0,29.86,SSE,153,2.0,5.0,50,0.00,,,0.00,Wunderground v.1.15,2013-01-20 07:57:00,
2013-01-20 03:04:00,42.3,25.0,29.86,ESE,109,3.0,5.0,50,0.00,,,0.00,Wunderground v.1.15,2013-01-20 08:04:00,
2013-01-20 03:10:00,42.2,24.9,29.86,SE,144,4.0,4.0,50,0.00,,,0.00,Wunderground v.1.15,2013-01-20 08:10:00,
2013-01-20 03:16:00,41.9,25.1,29.86,SSE,153,3.0,4.0,51,0.00,,,0.00,Wunderground v.1.15,2013-01-20 08:16:00,
2013-01-20 03:21:00,41.9,25.1,29.85,SE,144,3.0,6.0,51,0.00,,,0.00,Wunderground v.1.15,2013-01-20 08:21:00,
2013-01-20 03:27:00,41.8,25.0,29.85,SE,140,3.0,6.0,51,0.00,,,0.00,Wunderground v.1.15,2013-01-20 08:27:00,
2013-01-20 03:32:00,41.7,25.4,29.85,SSE,160,3.0,3.0,52,0.00,,,0.00,Wunderground v.1.15,2013-01-20 08:32:00,
2013-01-20 03:38:00,41.6,25.3,29.85,SE,140,3.0,5.0,52,0.00,,,0.00,Wunderground v.1.15,2013-01-20 08:38:00,
2013-01-20 03:43:00,41.6,25.3,29.84,SSE,163,3.0,3.0,52,0.00,,,0.00,Wunderground v.1.15,2013-01-20 08:43:00,
2013-01-20 03:49:00,41.5,25.2,29.84,South,171,3.0,3.0,52,0.00,,,0.00,Wunderground v.1.15,2013-01-20 08:49:00,
2013-01-20 03:54:00,41.4,25.5,29.84,South,172,3.0,3.0,53,0.00,,,0.00,Wunderground v.1.15,2013-01-20 08:54:00,
2013-01-20 03:59:00,41.2,25.3,29.83,SSE,150,3.0,6.0,53,0.00,,,0.00,Wunderground v.1.15,2013-01-20 08:59:00,
2013-01-20 04:04:00,41.1,25.3,29.84,SE,141,3.0,4.0,53,0.00,,,0.00,Wunderground v.1.15,2013-01-20 09:04:00,
2013-01-20 04:10:00,41.0,25.6,29.83,South,169,3.0,4.0,54,0.00,,,0.00,Wunderground v.1.15,2013-01-20 09:10:00,
2013-01-20 04:16:00,41.0,25.6,29.83,SE,130,3.0,5.0,54,0.00,,,0.00,Wunderground v.1.15,2013-01-20 09:16:00,
2013-01-20 04:21:00,40.8,25.4,29.83,South,182,3.0,3.0,54,0.00,,,0.00,Wunderground v.1.15,2013-01-20 09:21:00,
2013-01-20 04:26:00,40.7,25.8,29.83,SE,143,2.0,4.0,55,0.00,,,0.00,Wunderground v.1.15,2013-01-20 09:26:00,
2013-01-20 04:31:00,40.4,25.5,29.83,SE,143,2.0,2.0,55,0.00,,,0.00,Wunderground v.1.15,2013-01-20 09:31:00,
2013-01-20 04:37:00,40.3,25.8,29.82,SSE,157,2.0,3.0,56,0.00,,,0.00,Wunderground v.1.15,2013-01-20 09:37:00,
2013-01-20 04:42:00,40.2,25.7,29.82,SE,132,2.0,3.0,56,0.00,,,0.00,Wunderground v.1.15,2013-01-20 09:42:00,
2013-01-20 04:49:00,40.2,25.7,29.82,SE,140,2.0,3.0,56,0.00,,,0.00,Wunderground v.1.15,2013-01-20 09:49:00,
2013-01-20 04:54:00,40.1,25.6,29.82,SSE,160,2.0,4.0,56,0.00,,,0.00,Wunderground v.1.15,2013-01-20 09:54:00,
2013-01-20 04:59:00,40.2,25.7,29.82,SSE,152,2.0,5.0,56,0.00,,,0.00,Wunderground v.1.15,2013-01-20 09:59:00,
2013-01-20 05:04:00,40.2,25.7,29.82,South,190,2.0,2.0,56,0.00,,,0.00,Wunderground v.1.15,2013-01-20 10:04:00,
2013-01-20 05:10:00,40.2,26.2,29.81,SE,133,2.0,2.0,57,0.00,,,0.00,Wunderground v.1.15,2013-01-20 10:10:00,
2013-01-20 05:16:00,40.2,26.2,29.81,SSE,164,2.0,3.0,57,0.00,,,0.00,Wunderground v.1.15,2013-01-20 10:16:00,
2013-01-20 05:21:00,40.2,26.2,29.81,SSE,163,3.0,3.0,57,0.00,,,0.00,Wunderground v.1.15,2013-01-20 10:21:00,
2013-01-20 05:26:00,40.3,25.8,29.81,SSE,166,3.0,5.0,56,0.00,,,0.00,Wunderground v.1.15,2013-01-20 10:26:00,
2013-01-20 05:32:00,40.4,25.9,29.81,SSE,148,3.0,5.0,56,0.00,,,0.00,Wunderground v.1.15,2013-01-20 10:32:00,
2013-01-20 05:38:00,40.3,25.8,29.81,ESE,102,2.0,5.0,56,0.00,,,0.00,Wunderground v.1.15,2013-01-20 10:38:00,
2013-01-20 05:43:00,40.3,25.8,29.81,SE,143,2.0,3.0,56,0.00,,,0.00,Wunderground v.1.15,2013-01-20 10:43:00,
2013-01-20 05:49:00,40.3,25.8,29.81,South,182,2.0,3.0,56,0.00,,,0.00,Wunderground v.1.15,2013-01-20 10:49:00,
2013-01-20 05:54:00,40.2,26.2,29.81,SSE,166,2.0,4.0,57,0.00,,,0.00,Wunderground v.1.15,2013-01-20 10:54:00,
2013-01-20 05:59:00,39.9,25.9,29.80,SSE,167,2.0,4.0,57,0.00,,,0.00,Wunderground v.1.15,2013-01-20 10:59:00,
2013-01-20 06:04:00,39.7,26.1,29.80,SSE,166,2.0,2.0,58,0.00,,,0.00,Wunderground v.1.15,2013-01-20 11:04:00,
2013-01-20 06:10:00,39.6,26.0,29.80,SE,137,2.0,6.0,58,0.00,,,0.00,Wunderground v.1.15,2013-01-20 11:10:00,
2013-01-20 06:16:00,39.3,26.2,29.80,SE,143,2.0,3.0,59,0.00,,,0.00,Wunderground v.1.15,2013-01-20 11:16:00,
2013-01-20 06:21:00,39.0,26.3,29.80,SE,143,1.0,1.0,60,0.00,,,0.00,Wunderground v.1.15,2013-01-20 11:21:00,
2013-01-20 06:27:00,38.8,26.1,29.80,SE,144,2.0,3.0,60,0.00,,,0.00,Wunderground v.1.15,2013-01-20 11:27:00,
2013-01-20 06:32:00,38.8,26.1,29.80,SE,144,2.0,2.0,60,0.00,,,0.00,Wunderground v.1.15,2013-01-20 11:32:00,
2013-01-20 06:38:00,38.3,26.0,29.80,SE,145,0.0,2.0,61,0.00,,,0.00,Wunderground v.1.15,2013-01-20 11:38:00,
2013-01-20 06:44:00,38.1,26.2,29.80,SE,145,0.0,2.0,62,0.00,,,0.00,Wunderground v.1.15,2013-01-20 11:44:00,
2013-01-20 06:49:00,37.9,26.0,29.81,SE,145,0.0,2.0,62,0.00,,,0.00,Wunderground v.1.15,2013-01-20 11:49:00,
2013-01-20 06:54:00,37.7,26.2,29.81,SE,145,0.0,2.0,63,0.00,,,0.00,Wunderground v.1.15,2013-01-20 11:54:00,
2013-01-20 06:59:00,37.7,26.2,29.81,SE,145,1.0,2.0,63,0.00,,,0.00,Wunderground v.1.15,2013-01-20 11:59:00,
2013-01-20 07:04:00,37.5,26.0,29.81,SE,145,0.0,1.0,63,0.00,,,0.00,Wunderground v.1.15,2013-01-20 12:04:00,
2013-01-20 07:10:00,37.3,26.2,29.81,SE,145,0.0,0.0,64,0.00,,,0.00,Wunderground v.1.15,2013-01-20 12:10:00,
2013-01-20 07:15:00,37.0,25.9,29.81,SE,145,0.0,0.0,64,0.00,,,0.00,Wunderground v.1.15,2013-01-20 12:15:00,
2013-01-20 07:21:00,36.7,26.0,29.81,SE,145,0.0,0.0,65,0.00,,,0.00,Wunderground v.1.15,2013-01-20 12:21:00,
2013-01-20 07:26:00,36.6,25.9,29.81,SE,145,0.0,0.0,65,0.00,,,0.00,Wunderground v.1.15,2013-01-20 12:26:00,
2013-01-20 07:31:00,36.5,26.2,29.81,SE,145,0.0,0.0,66,0.00,,,0.00,Wunderground v.1.15,2013-01-20 12:31:00,
2013-01-20 07:37:00,36.0,26.1,29.81,SE,145,0.0,0.0,67,0.00,,,0.00,Wunderground v.1.15,2013-01-20 12:37:00,
2013-01-20 07:42:00,35.8,25.9,29.82,SE,145,0.0,0.0,67,0.00,,,0.00,Wunderground v.1.15,2013-01-20 12:42:00,
2013-01-20 07:47:00,35.8,26.3,29.82,SE,145,0.0,0.0,68,0.00,,,0.00,Wunderground v.1.15,2013-01-20 12:47:00,
2013-01-20 07:52:00,36.0,26.5,29.82,SE,145,0.0,0.0,68,0.00,,,0.00,Wunderground v.1.15,2013-01-20 12:52:00,
2013-01-20 07:58:00,36.1,26.6,29.82,SE,145,0.0,1.0,68,0.00,,,0.00,Wunderground v.1.15,2013-01-20 12:58:00,
2013-01-20 08:04:00,37.1,27.2,29.82,SE,145,0.0,0.0,67,0.00,,,0.00,Wunderground v.1.15,2013-01-20 13:04:00,
2013-01-20 08:09:00,38.9,28.9,29.83,West,259,1.0,3.0,67,0.00,,,0.00,Wunderground v.1.15,2013-01-20 13:09:00,
2013-01-20 08:15:00,44.6,31.1,29.83,WNW,286,3.0,8.0,59,0.00,,,0.00,Wunderground v.1.15,2013-01-20 13:15:00,
2013-01-20 08:21:00,47.4,31.1,29.83,West,260,6.0,6.0,53,0.00,,,0.00,Wunderground v.1.15,2013-01-20 13:21:00,
2013-01-20 08:26:00,48.6,30.8,29.83,West,269,7.0,10.0,50,0.00,,,0.00,Wunderground v.1.15,2013-01-20 13:26:00,
2013-01-20 08:32:00,49.0,30.7,29.83,WNW,285,7.0,9.0,49,0.00,,,0.00,Wunderground v.1.15,2013-01-20 13:32:00,
2013-01-20 08:37:00,49.2,30.8,29.83,WSW,241,7.0,10.0,49,0.00,,,0.00,Wunderground v.1.15,2013-01-20 13:37:00,
2013-01-20 08:43:00,49.6,31.2,29.83,SW,230,8.0,13.0,49,0.00,,,0.00,Wunderground v.1.15,2013-01-20 13:43:00,
2013-01-20 08:49:00,50.0,31.1,29.84,WNW,286,8.0,13.0,48,0.00,,,0.00,Wunderground v.1.15,2013-01-20 13:49:00,
2013-01-20 08:54:00,50.4,31.4,29.84,NW,326,10.0,15.0,48,0.00,,,0.00,Wunderground v.1.15,2013-01-20 13:54:00,
2013-01-20 08:59:00,50.5,31.5,29.84,WNW,291,10.0,15.0,48,0.00,,,0.00,Wunderground v.1.15,2013-01-20 13:59:00,
2013-01-20 09:04:00,50.5,31.5,29.84,West,277,9.0,13.0,48,0.00,,,0.00,Wunderground v.1.15,2013-01-20 14:04:00,
2013-01-20 09:10:00,50.5,31.5,29.84,WNW,289,11.0,22.0,48,0.00,,,0.00,Wunderground v.1.15,2013-01-20 14:10:00,
2013-01-20 09:16:00,50.6,31.6,29.84,WSW,240,11.0,13.0,48,0.00,,,0.00,Wunderground v.1.15,2013-01-20 14:16:00,
2013-01-20 09:21:00,50.7,31.2,29.84,WNW,294,10.0,10.0,47,0.00,,,0.00,Wunderground v.1.15,2013-01-20 14:21:00,
2013-01-20 09:26:00,50.9,31.9,29.84,WNW,298,9.0,10.0,48,0.00,,,0.00,Wunderground v.1.15,2013-01-20 14:26:00,
2013-01-20 09:32:00,51.0,31.5,29.84,NW,315,10.0,17.0,47,0.00,,,0.00,Wunderground v.1.15,2013-01-20 14:32:00,
2013-01-20 09:37:00,51.1,31.6,29.84,West,271,11.0,17.0,47,0.00,,,0.00,Wunderground v.1.15,2013-01-20 14:37:00,
2013-01-20 09:43:00,51.3,31.7,29.84,WNW,298,11.0,12.0,47,0.00,,,0.00,Wunderground v.1.15,2013-01-20 14:43:00,
2013-01-20 09:49:00,51.5,30.8,29.84,WNW,290,12.0,15.0,45,0.00,,,0.00,Wunderground v.1.15,2013-01-20 14:49:00,
2013-01-20 09:55:00,51.7,31.0,29.85,West,262,13.0,19.0,45,0.00,,,0.00,Wunderground v.1.15,2013-01-20 14:55:00,
2013-01-20 10:01:00,52.0,30.7,29.84,West,275,13.0,13.0,44,0.00,,,0.00,Wunderground v.1.15,2013-01-20 15:01:00,
2013-01-20 10:06:00,52.0,30.2,29.85,West,274,12.0,14.0,43,0.00,,,0.00,Wunderground v.1.15,2013-01-20 15:06:00,
2013-01-20 10:11:00,52.1,30.3,29.84,West,264,11.0,12.0,43,0.00,,,0.00,Wunderground v.1.15,2013-01-20 15:11:00,
2013-01-20 10:17:00,52.3,30.4,29.84,WNW,295,11.0,16.0,43,0.00,,,0.00,Wunderground v.1.15,2013-01-20 15:17:00,
2013-01-20 10:22:00,52.1,30.3,29.84,West,279,12.0,12.0,43,0.00,,,0.00,Wunderground v.1.15,2013-01-20 15:22:00,
2013-01-20 10:27:00,52.5,30.0,29.85,WNW,288,11.0,12.0,42,0.00,,,0.00,Wunderground v.1.15,2013-01-20 15:27:00,
2013-01-20 10:32:00,52.6,30.1,29.85,West,274,10.0,14.0,42,0.00,,,0.00,Wunderground v.1.15,2013-01-20 15:32:00,
2013-01-20 10:37:00,52.7,30.8,29.85,West,262,10.0,14.0,43,0.00,,,0.00,Wunderground v.1.15,2013-01-20 15:37:00,
2013-01-20 10:43:00,53.1,30.6,29.85,NW,313,10.0,11.0,42,0.00,,,0.00,Wunderground v.1.15,2013-01-20 15:43:00,
2013-01-20 10:49:00,53.3,30.8,29.85,West,279,10.0,12.0,42,0.00,,,0.00,Wunderground v.1.15,2013-01-20 15:49:00,
2013-01-20 10:54:00,52.9,30.4,29.85,West,279,11.0,15.0,42,0.00,,,0.00,Wunderground v.1.15,2013-01-20 15:54:00,
2013-01-20 10:59:00,53.0,30.5,29.85,WNW,291,12.0,17.0,42,0.00,,,0.00,Wunderground v.1.15,2013-01-20 15:59:00,
2013-01-20 11:04:00,53.3,30.8,29.85,West,267,11.0,14.0,42,0.00,,,0.00,Wunderground v.1.15,2013-01-20 16:04:00,
2013-01-20 11:10:00,53.3,30.2,29.85,WNW,285,12.0,12.0,41,0.00,,,0.00,Wunderground v.1.15,2013-01-20 16:10:00,
2013-01-20 11:16:00,52.6,29.5,29.85,NW,305,14.0,21.0,41,0.00,,,0.00,Wunderground v.1.15,2013-01-20 16:16:00,
2013-01-20 11:21:00,52.8,29.1,29.85,WNW,284,14.0,14.0,40,0.00,,,0.00,Wunderground v.1.15,2013-01-20 16:21:00,
2013-01-20 11:26:00,53.3,29.6,29.85,WNW,292,13.0,15.0,40,0.00,,,0.00,Wunderground v.1.15,2013-01-20 16:26:00,
2013-01-20 11:31:00,53.0,28.7,29.85,WNW,298,13.0,19.0,39,0.00,,,0.00,Wunderground v.1.15,2013-01-20 16:31:00,
2013-01-20 11:36:00,52.8,28.5,29.85,NW,311,13.0,19.0,39,0.00,,,0.00,Wunderground v.1.15,2013-01-20 16:36:00,
2013-01-20 11:42:00,52.8,29.7,29.85,NW,317,14.0,16.0,41,0.00,,,0.00,Wunderground v.1.15,2013-01-20 16:42:00,
2013-01-20 11:47:00,53.2,28.9,29.84,NW,309,13.0,16.0,39,0.00,,,0.00,Wunderground v.1.15,2013-01-20 16:47:00,
2013-01-20 11:52:00,52.9,28.0,29.84,WNW,290,12.0,18.0,38,0.00,,,0.00,Wunderground v.1.15,2013-01-20 16:52:00,
2013-01-20 11:57:00,53.1,29.4,29.84,West,274,12.0,18.0,40,0.00,,,0.00,Wunderground v.1.15,2013-01-20 16:57:00,
2013-01-20 12:02:00,53.3,27.0,29.84,WSW,256,12.0,12.0,36,0.00,,,0.00,Wunderground v.1.15,2013-01-20 17:02:00,
2013-01-20 12:07:00,52.5,26.9,29.84,West,272,13.0,19.0,37,0.00,,,0.00,Wunderground v.1.15,2013-01-20 17:07:00,
2013-01-20 12:12:00,52.6,27.7,29.84,West,263,13.0,16.0,38,0.00,,,0.00,Wunderground v.1.15,2013-01-20 17:12:00,
2013-01-20 12:19:00,53.1,26.1,29.84,NW,322,11.0,16.0,35,0.00,,,0.00,Wunderground v.1.15,2013-01-20 17:19:00,
2013-01-20 12:25:00,53.9,27.5,29.84,WNW,299,10.0,15.0,36,0.00,,,0.00,Wunderground v.1.15,2013-01-20 17:25:00,
2013-01-20 12:31:00,53.7,26.0,29.84,West,269,9.0,14.0,34,0.00,,,0.00,Wunderground v.1.15,2013-01-20 17:31:00,
2013-01-20 12:36:00,53.2,25.5,29.84,West,266,10.0,14.0,34,0.00,,,0.00,Wunderground v.1.15,2013-01-20 17:36:00,
2013-01-20 12:41:00,53.1,24.7,29.84,West,261,10.0,10.0,33,0.00,,,0.00,Wunderground v.1.15,2013-01-20 17:41:00,
2013-01-20 12:47:00,53.1,22.4,29.84,NW,307,12.0,19.0,30,0.00,,,0.00,Wunderground v.1.15,2013-01-20 17:47:00,
2013-01-20 12:52:00,52.4,19.3,29.85,WNW,291,15.0,16.0,27,0.00,,,0.00,Wunderground v.1.15,2013-01-20 17:52:00,
2013-01-20 12:58:00,52.3,18.4,29.85,West,274,15.0,18.0,26,0.00,,,0.00,Wunderground v.1.15,2013-01-20 17:58:00,
2013-01-20 13:04:00,52.3,18.4,29.85,NW,316,15.0,18.0,26,0.00,,,0.00,Wunderground v.1.15,2013-01-20 18:04:00,
2013-01-20 13:10:00,52.2,18.3,29.85,West,279,15.0,22.0,26,0.00,,,0.00,Wunderground v.1.15,2013-01-20 18:10:00,
2013-01-20 13:16:00,52.4,18.5,29.85,West,274,14.0,17.0,26,0.00,,,0.00,Wunderground v.1.15,2013-01-20 18:16:00,
2013-01-20 13:21:00,52.4,19.3,29.85,NW,305,14.0,14.0,27,0.00,,,0.00,Wunderground v.1.15,2013-01-20 18:21:00,
2013-01-20 13:27:00,52.7,19.6,29.85,West,265,13.0,14.0,27,0.00,,,0.00,Wunderground v.1.15,2013-01-20 18:27:00,
2013-01-20 13:34:00,52.6,20.4,29.85,NW,313,12.0,12.0,28,0.00,,,0.00,Wunderground v.1.15,2013-01-20 18:34:00,
2013-01-20 13:40:00,52.7,19.6,29.85,NW,309,12.0,16.0,27,0.00,,,0.00,Wunderground v.1.15,2013-01-20 18:40:00,
2013-01-20 13:46:00,52.4,18.5,29.86,NW,306,12.0,16.0,26,0.00,,,0.00,Wunderground v.1.15,2013-01-20 18:46:00,
2013-01-20 13:51:00,52.4,17.6,29.86,NNE,12,12.0,12.0,25,0.00,,,0.00,Wunderground v.1.15,2013-01-20 18:51:00,
2013-01-20 13:56:00,52.6,17.7,29.86,WSW,256,10.0,18.0,25,0.00,,,0.00,Wunderground v.1.15,2013-01-20 18:56:00,
2013-01-20 14:02:00,52.4,19.3,29.87,WNW,289,11.0,12.0,27,0.00,,,0.00,Wunderground v.1.15,2013-01-20 19:02:00,
2013-01-20 14:07:00,52.3,18.4,29.87,North,5,11.0,12.0,26,0.00,,,0.00,Wunderground v.1.15,2013-01-20 19:07:00,
2013-01-20 14:13:00,52.1,16.4,29.87,NW,324,10.0,19.0,24,0.00,,,0.00,Wunderground v.1.15,2013-01-20 19:13:00,
2013-01-20 14:19:00,51.5,16.8,29.87,West,265,13.0,19.0,25,0.00,,,0.00,Wunderground v.1.15,2013-01-20 19:19:00,
2013-01-20 14:25:00,51.4,14.8,29.88,West,281,13.0,16.0,23,0.00,,,0.00,Wunderground v.1.15,2013-01-20 19:25:00,
2013-01-20 14:30:00,51.4,14.8,29.88,WNW,296,11.0,12.0,23,0.00,,,0.00,Wunderground v.1.15,2013-01-20 19:30:00,
2013-01-20 14:36:00,51.5,15.8,29.88,NW,309,11.0,16.0,24,0.00,,,0.00,Wunderground v.1.15,2013-01-20 19:36:00,
2013-01-20 14:41:00,51.2,15.6,29.89,West,265,11.0,15.0,24,0.00,,,0.00,Wunderground v.1.15,2013-01-20 19:41:00,
2013-01-20 14:47:00,50.5,14.0,29.89,NW,312,12.0,17.0,23,0.00,,,0.00,Wunderground v.1.15,2013-01-20 19:47:00,
2013-01-20 14:52:00,50.5,14.0,29.89,NW,309,12.0,12.0,23,0.00,,,0.00,Wunderground v.1.15,2013-01-20 19:52:00,
2013-01-20 14:57:00,50.6,14.1,29.90,WNW,292,11.0,16.0,23,0.00,,,0.00,Wunderground v.1.15,2013-01-20 19:57:00,
2013-01-20 15:02:00,49.9,13.5,29.90,West,271,12.0,15.0,23,0.00,,,0.00,Wunderground v.1.15,2013-01-20 20:02:00,
2013-01-20 15:08:00,49.7,14.3,29.90,WNW,290,13.0,17.0,24,0.00,,,0.00,Wunderground v.1.15,2013-01-20 20:08:00,
2013-01-20 15:13:00,50.1,16.5,29.91,NW,310,10.0,12.0,26,0.00,,,0.00,Wunderground v.1.15,2013-01-20 20:13:00,
2013-01-20 15:19:00,49.7,15.2,29.91,WNW,292,9.0,13.0,25,0.00,,,0.00,Wunderground v.1.15,2013-01-20 20:19:00,
2013-01-20 15:25:00,49.5,15.1,29.91,WNW,302,9.0,15.0,25,0.00,,,0.00,Wunderground v.1.15,2013-01-20 20:25:00,
2013-01-20 15:30:00,49.0,15.6,29.92,West,279,10.0,10.0,26,0.00,,,0.00,Wunderground v.1.15,2013-01-20 20:30:00,
2013-01-20 15:36:00,48.3,15.0,29.92,WNW,301,12.0,18.0,26,0.00,,,0.00,Wunderground v.1.15,2013-01-20 20:36:00,
2013-01-20 15:42:00,48.1,13.9,29.92,West,279,12.0,17.0,25,0.00,,,0.00,Wunderground v.1.15,2013-01-20 20:42:00,
2013-01-20 15:49:00,48.0,14.7,29.93,NNW,331,11.0,17.0,26,0.00,,,0.00,Wunderground v.1.15,2013-01-20 20:49:00,
2013-01-20 15:55:00,47.4,13.3,29.93,West,264,12.0,14.0,25,0.00,,,0.00,Wunderground v.1.15,2013-01-20 20:55:00,
2013-01-20 16:00:00,47.3,14.1,29.93,WNW,294,11.0,13.0,26,0.00,,,0.00,Wunderground v.1.15,2013-01-20 21:00:00,
2013-01-20 16:06:00,47.0,16.3,29.94,WNW,298,9.0,13.0,29,0.00,,,0.00,Wunderground v.1.15,2013-01-20 21:06:00,
2013-01-20 16:11:00,46.3,15.7,29.94,NW,306,9.0,10.0,29,0.00,,,0.00,Wunderground v.1.15,2013-01-20 21:11:00,
2013-01-20 16:17:00,46.2,14.8,29.95,West,269,8.0,11.0,28,0.00,,,0.00,Wunderground v.1.15,2013-01-20 21:17:00,
2013-01-20 16:23:00,45.2,14.0,29.95,NW,308,8.0,10.0,28,0.00,,,0.00,Wunderground v.1.15,2013-01-20 21:23:00,
2013-01-20 16:28:00,45.2,13.1,29.95,West,267,8.0,11.0,27,0.00,,,0.00,Wunderground v.1.15,2013-01-20 21:28:00,
2013-01-20 16:34:00,44.6,13.5,29.95,WNW,299,8.0,11.0,28,0.00,,,0.00,Wunderground v.1.15,2013-01-20 21:34:00,
2013-01-20 16:40:00,44.5,12.5,29.95,WNW,290,8.0,8.0,27,0.00,,,0.00,Wunderground v.1.15,2013-01-20 21:40:00,
2013-01-20 16:46:00,44.0,12.9,29.95,WNW,292,7.0,14.0,28,0.00,,,0.00,Wunderground v.1.15,2013-01-20 21:46:00,
2013-01-20 16:52:00,44.2,11.4,29.95,WNW,285,9.0,12.0,26,0.00,,,0.00,Wunderground v.1.15,2013-01-20 21:52:00,
2013-01-20 16:58:00,43.2,12.2,29.96,WNW,287,8.0,12.0,28,0.00,,,0.00,Wunderground v.1.15,2013-01-20 21:58:00,
2013-01-20 17:04:00,43.2,11.4,29.96,West,269,7.0,9.0,27,0.00,,,0.00,Wunderground v.1.15,2013-01-20 22:04:00,
2013-01-20 17:10:00,43.1,12.2,29.97,NW,325,8.0,8.0,28,0.00,,,0.00,Wunderground v.1.15,2013-01-20 22:10:00,
2013-01-20 17:16:00,42.5,10.8,29.97,West,265,7.0,10.0,27,0.00,,,0.00,Wunderground v.1.15,2013-01-20 22:16:00,
2013-01-20 17:21:00,42.6,10.9,29.97,WNW,284,8.0,8.0,27,0.00,,,0.00,Wunderground v.1.15,2013-01-20 22:21:00,
2013-01-20 17:26:00,42.2,11.4,29.98,West,280,8.0,8.0,28,0.00,,,0.00,Wunderground v.1.15,2013-01-20 22:26:00,
2013-01-20 17:31:00,42.0,11.2,29.98,WNW,285,8.0,8.0,28,0.00,,,0.00,Wunderground v.1.15,2013-01-20 22:31:00,
2013-01-20 17:37:00,40.9,11.8,29.98,WNW,288,6.0,8.0,30,0.00,,,0.00,Wunderground v.1.15,2013-01-20 22:37:00,
2013-01-20 17:42:00,40.1,11.1,29.99,WNW,288,4.0,6.0,30,0.00,,,0.00,Wunderground v.1.15,2013-01-20 22:42:00,
2013-01-20 17:49:00,39.6,10.7,29.99,WNW,296,4.0,6.0,30,0.00,,,0.00,Wunderground v.1.15,2013-01-20 22:49:00,
2013-01-20 17:55:00,39.1,11.7,29.99,West,273,3.0,4.0,32,0.00,,,0.00,Wunderground v.1.15,2013-01-20 22:55:00,
2013-01-20 18:00:00,38.9,11.5,29.99,West,279,3.0,3.0,32,0.00,,,0.00,Wunderground v.1.15,2013-01-20 23:00:00,
2013-01-20 18:06:00,38.9,10.1,30.00,WNW,301,4.0,8.0,30,0.00,,,0.00,Wunderground v.1.15,2013-01-20 23:06:00,
2013-01-20 18:12:00,38.9,10.8,30.00,WNW,294,4.0,4.0,31,0.00,,,0.00,Wunderground v.1.15,2013-01-20 23:12:00,
2013-01-20 18:19:00,38.6,10.5,30.00,WNW,294,2.0,4.0,31,0.00,,,0.00,Wunderground v.1.15,2013-01-20 23:19:00,
2013-01-20 18:25:00,38.7,9.9,30.00,WNW,303,3.0,6.0,30,0.00,,,0.00,Wunderground v.1.15,2013-01-20 23:25:00,
2013-01-20 18:31:00,38.2,10.9,30.00,WNW,290,3.0,4.0,32,0.00,,,0.00,Wunderground v.1.15,2013-01-20 23:31:00,
2013-01-20 18:36:00,37.5,10.3,30.00,WNW,292,3.0,4.0,32,0.00,,,0.00,Wunderground v.1.15,2013-01-20 23:36:00,
2013-01-20 18:42:00,37.0,11.2,30.01,WNW,297,3.0,3.0,34,0.00,,,0.00,Wunderground v.1.15,2013-01-20 23:42:00,
2013-01-20 18:47:00,37.8,9.8,30.01,WNW,288,3.0,7.0,31,0.00,,,0.00,Wunderground v.1.15,2013-01-20 23:47:00,
2013-01-20 18:52:00,38.0,9.3,30.01,NW,313,3.0,3.0,30,0.00,,,0.00,Wunderground v.1.15,2013-01-20 23:52:00,
2013-01-20 18:57:00,37.8,11.2,30.01,WNW,290,3.0,5.0,33,0.00,,,0.00,Wunderground v.1.15,2013-01-20 23:57:00,
2013-01-20 19:03:00,37.7,10.4,30.02,NNW,328,3.0,6.0,32,0.00,,,0.00,Wunderground v.1.15,2013-01-21 00:03:00,
2013-01-20 19:08:00,37.6,11.0,30.02,NW,305,4.0,7.0,33,0.00,,,0.00,Wunderground v.1.15,2013-01-21 00:08:00,
2013-01-20 19:13:00,38.4,11.1,30.02,WNW,288,5.0,9.0,32,0.00,,,0.00,Wunderground v.1.15,2013-01-21 00:13:00,
2013-01-20 19:19:00,38.0,11.4,30.02,WNW,290,6.0,9.0,33,0.00,,,0.00,Wunderground v.1.15,2013-01-21 00:19:00,
2013-01-20 19:24:00,38.2,10.9,30.02,WNW,283,5.0,8.0,32,0.00,,,0.00,Wunderground v.1.15,2013-01-21 00:24:00,
2013-01-20 19:30:00,38.1,11.5,30.02,WNW,288,5.0,7.0,33,0.00,,,0.00,Wunderground v.1.15,2013-01-21 00:30:00,
2013-01-20 19:36:00,37.6,11.0,30.02,WNW,295,4.0,7.0,33,0.00,,,0.00,Wunderground v.1.15,2013-01-21 00:36:00,
2013-01-20 19:42:00,37.4,12.2,30.02,WNW,291,4.0,8.0,35,0.00,,,0.00,Wunderground v.1.15,2013-01-21 00:42:00,
2013-01-20 19:47:00,37.3,12.1,30.02,WNW,294,5.0,8.0,35,0.00,,,0.00,Wunderground v.1.15,2013-01-21 00:47:00,
2013-01-20 19:52:00,37.2,12.0,30.02,WNW,296,5.0,6.0,35,0.00,,,0.00,Wunderground v.1.15,2013-01-21 00:52:00,
2013-01-20 19:58:00,37.1,11.9,30.02,WNW,286,5.0,8.0,35,0.00,,,0.00,Wunderground v.1.15,2013-01-21 00:58:00,
2013-01-20 20:04:00,37.4,12.2,30.02,WNW,283,6.0,10.0,35,0.00,,,0.00,Wunderground v.1.15,2013-01-21 01:04:00,
2013-01-20 20:10:00,36.9,11.1,30.02,WNW,290,6.0,10.0,34,0.00,,,0.00,Wunderground v.1.15,2013-01-21 01:10:00,
2013-01-20 20:15:00,36.9,12.4,30.02,WNW,292,5.0,8.0,36,0.00,,,0.00,Wunderground v.1.15,2013-01-21 01:15:00,
2013-01-20 20:21:00,36.5,12.7,30.02,WNW,288,6.0,6.0,37,0.00,,,0.00,Wunderground v.1.15,2013-01-21 01:21:00,
2013-01-20 20:27:00,36.9,11.8,30.02,West,259,6.0,9.0,35,0.00,,,0.00,Wunderground v.1.15,2013-01-21 01:27:00,
2013-01-20 20:32:00,36.8,11.7,30.03,WNW,285,6.0,6.0,35,0.00,,,0.00,Wunderground v.1.15,2013-01-21 01:32:00,
2013-01-20 20:38:00,37.3,11.5,30.03,WNW,292,6.0,13.0,34,0.00,,,0.00,Wunderground v.1.15,2013-01-21 01:38:00,
2013-01-20 20:44:00,37.6,11.0,30.03,NNW,344,8.0,11.0,33,0.00,,,0.00,Wunderground v.1.15,2013-01-21 01:44:00,
2013-01-20 20:50:00,37.5,11.6,30.03,WNW,286,8.0,11.0,34,0.00,,,0.00,Wunderground v.1.15,2013-01-21 01:50:00,
2013-01-20 20:55:00,37.1,11.3,30.03,WNW,291,6.0,8.0,34,0.00,,,0.00,Wunderground v.1.15,2013-01-21 01:55:00,
2013-01-20 21:01:00,36.8,11.7,30.03,NW,311,5.0,6.0,35,0.00,,,0.00,Wunderground v.1.15,2013-01-21 02:01:00,
2013-01-20 21:06:00,37.1,11.9,30.03,NW,306,6.0,13.0,35,0.00,,,0.00,Wunderground v.1.15,2013-01-21 02:06:00,
2013-01-20 21:11:00,37.0,12.5,30.03,WNW,287,7.0,7.0,36,0.00,,,0.00,Wunderground v.1.15,2013-01-21 02:11:00,
2013-01-20 21:17:00,36.9,11.8,30.03,WNW,296,7.0,13.0,35,0.00,,,0.00,Wunderground v.1.15,2013-01-21 02:17:00,
2013-01-20 21:22:00,36.9,12.4,30.03,WNW,299,8.0,12.0,36,0.00,,,0.00,Wunderground v.1.15,2013-01-21 02:22:00,
2013-01-20 21:27:00,36.9,12.4,30.04,WNW,297,7.0,12.0,36,0.00,,,0.00,Wunderground v.1.15,2013-01-21 02:27:00,
2013-01-20 21:34:00,36.3,12.5,30.04,West,265,6.0,7.0,37,0.00,,,0.00,Wunderground v.1.15,2013-01-21 02:34:00,
2013-01-20 21:40:00,36.1,12.3,30.04,NNW,333,5.0,7.0,37,0.00,,,0.00,Wunderground v.1.15,2013-01-21 02:40:00,
2013-01-20 21:46:00,35.8,13.2,30.04,WNW,295,5.0,7.0,39,0.00,,,0.00,Wunderground v.1.15,2013-01-21 02:46:00,
2013-01-20 21:51:00,35.6,12.5,30.04,NW,311,4.0,5.0,38,0.00,,,0.00,Wunderground v.1.15,2013-01-21 02:51:00,
2013-01-20 21:56:00,35.7,12.5,30.04,NNW,333,4.0,7.0,38,0.00,,,0.00,Wunderground v.1.15,2013-01-21 02:56:00,
2013-01-20 22:02:00,35.8,12.6,30.04,NW,314,5.0,6.0,38,0.00,,,0.00,Wunderground v.1.15,2013-01-21 03:02:00,
2013-01-20 22:08:00,35.7,12.5,30.04,NNW,337,5.0,9.0,38,0.00,,,0.00,Wunderground v.1.15,2013-01-21 03:08:00,
2013-01-20 22:13:00,35.6,13.0,30.04,NW,326,5.0,5.0,39,0.00,,,0.00,Wunderground v.1.15,2013-01-21 03:13:00,
2013-01-20 22:19:00,35.5,13.0,30.04,WNW,300,4.0,6.0,39,0.00,,,0.00,Wunderground v.1.15,2013-01-21 03:19:00,
2013-01-20 22:25:00,35.3,12.8,30.04,NW,323,4.0,5.0,39,0.00,,,0.00,Wunderground v.1.15,2013-01-21 03:25:00,
2013-01-20 22:30:00,35.2,12.7,30.04,WNW,285,4.0,9.0,39,0.00,,,0.00,Wunderground v.1.15,2013-01-21 03:30:00,
2013-01-20 22:36:00,35.1,12.6,30.04,West,279,4.0,8.0,39,0.00,,,0.00,Wunderground v.1.15,2013-01-21 03:36:00,
2013-01-20 22:41:00,35.0,13.1,30.04,NW,312,3.0,3.0,40,0.00,,,0.00,Wunderground v.1.15,2013-01-21 03:41:00,
2013-01-20 22:47:00,34.7,12.8,30.05,NNW,328,3.0,9.0,40,0.00,,,0.00,Wunderground v.1.15,2013-01-21 03:47:00,
2013-01-20 22:52:00,34.6,13.3,30.05,West,264,3.0,3.0,41,0.00,,,0.00,Wunderground v.1.15,2013-01-21 03:52:00,
2013-01-20 22:58:00,34.2,13.5,30.06,West,269,2.0,6.0,42,0.00,,,0.00,Wunderground v.1.15,2013-01-21 03:58:00,
2013-01-20 23:04:00,34.4,13.1,30.06,West,274,2.0,4.0,41,0.00,,,0.00,Wunderground v.1.15,2013-01-21 04:04:00,
2013-01-20 23:10:00,34.2,12.9,30.06,West,274,2.0,2.0,41,0.00,,,0.00,Wunderground v.1.15,2013-01-21 04:10:00,
2013-01-20 23:16:00,33.8,13.1,30.07,West,274,0.0,2.0,42,0.00,,,0.00,Wunderground v.1.15,2013-01-21 04:16:00,
2013-01-20 23:21:00,33.3,13.2,30.07,West,274,1.0,1.0,43,0.00,,,0.00,Wunderground v.1.15,2013-01-21 04:21:00,
2013-01-20 23:27:00,33.2,13.1,30.07,West,274,1.0,2.0,43,0.00,,,0.00,Wunderground v.1.15,2013-01-21 04:27:00,
2013-01-20 23:34:00,32.9,13.9,30.07,West,274,0.0,1.0,45,0.00,,,0.00,Wunderground v.1.15,2013-01-21 04:34:00,
2013-01-20 23:40:00,32.4,13.9,30.07,West,274,0.0,0.0,46,0.00,,,0.00,Wunderground v.1.15,2013-01-21 04:40:00,
2013-01-20 23:45:00,32.2,14.2,30.07,West,274,0.0,0.0,47,0.00,,,0.00,Wunderground v.1.15,2013-01-21 04:45:00,
2013-01-20 23:51:00,32.1,13.1,30.07,NW,326,0.0,0.0,45,0.00,,,0.00,Wunderground v.1.15,2013-01-21 04:51:00,
2013-01-20 23:57:00,32.0,14.0,30.07,NW,326,0.0,0.0,47,0.00,,,0.00,Wunderground v.1.15,2013-01-21 04:57:00,